KC5NAM Weather Reports


Display with metric or nautical units.
time (UTC)temp
F
wind
direction
speed
MPH
gust
MPH
rain 1hr
in
rain 24hr
in
rain mn
in
humidity
%
barometer
mb
20260904064037 81 150 2.0 6.0 0.00 0.00 0.00 83 1017.4
20260904063537 81 146 1.0 6.0 0.00 0.00 0.00 83 1017.4
20260904063056 81 158 1.0 5.0 0.00 0.00 0.00 83 1017.4
20260904062534 81 0 1.0 5.0 0.00 0.00 0.00 82 1017.5
20260904062034 82 0 1.0 5.0 0.00 0.00 0.00 82 1017.6
20260904061543 82 0 1.0 5.0 0.00 0.00 0.00 82 1017.6
20260904061035 82 163 2.0 9.0 0.00 0.00 0.00 82 1017.6
20260904060535 82 0 3.0 9.0 0.00 0.00 0.00 82 1017.5
20260904060056 82 150 4.0 9.0 0.00 0.00 0.00 82 1017.6
20260904055535 82 175 4.0 9.0 0.00 0.00 0.00 81 1017.6
20260904055034 82 165 3.0 8.0 0.00 0.00 0.00 81 1017.6
20260904054553 82 156 4.0 11.0 0.00 0.00 0.00 81 1017.6
20260904054035 82 155 3.0 12.0 0.00 0.00 0.00 81 1017.5
20260904053534 82 154 5.0 12.0 0.00 0.00 0.00 80 1017.4
20260904053052 82 126 5.0 13.0 0.00 0.00 0.00 80 1017.4
20260904052536 82 126 3.0 13.0 0.00 0.00 0.00 80 1017.4
20260904052034 82 145 5.0 13.0 0.00 0.00 0.00 80 1017.4
20260904051545 82 158 4.0 11.0 0.00 0.00 0.00 80 1017.3
20260904051035 82 121 5.0 11.0 0.00 0.00 0.00 80 1017.3
20260904050535 82 150 2.0 9.0 0.00 0.00 0.00 80 1017.3
20260904050057 83 125 5.0 15.0 0.00 0.00 0.00 80 1017.4
20260904045535 83 104 2.0 15.0 0.00 0.00 0.00 80 1017.4
20260904045037 83 152 4.0 10.0 0.00 0.00 0.00 80 1017.3
20260904044555 83 146 3.0 13.0 0.00 0.00 0.00 79 1017.2
20260904044038 83 360 5.0 13.0 0.00 0.00 0.00 79 1017.3
20260904043535 83 150 4.0 12.0 0.00 0.00 0.00 79 1017.2
20260904043101 83 152 3.0 12.0 0.00 0.00 0.00 78 1017.3
20260904042534 83 144 3.0 12.0 0.00 0.00 0.00 78 1017.3
20260904042039 83 144 4.0 12.0 0.00 0.00 0.00 77 1017.3
20260904041549 83 162 4.0 10.0 0.00 0.00 0.00 77 1017.3
20260904041035 83 0 4.0 10.0 0.00 0.00 0.00 77 1017.3
20260904040535 84 155 3.0 15.0 0.00 0.00 0.00 76 1017.3
20260904040058 84 155 3.0 15.0 0.00 0.00 0.00 76 1017.3
20260904035535 84 360 5.0 14.0 0.00 0.00 0.00 76 1017.2
20260904035037 84 113 3.0 9.0 0.00 0.00 0.00 75 1017.2
20260904034554 84 165 2.0 11.0 0.00 0.00 0.00 75 1017.2
20260904034036 84 150 4.0 12.0 0.00 0.00 0.00 75 1017.2
20260904033535 85 155 5.0 12.0 0.00 0.00 0.00 74 1017.1
20260904033048 85 131 4.0 15.0 0.00 0.00 0.00 74 1017.0
20260904032535 85 101 3.0 15.0 0.00 0.00 0.00 73 1017.0
20260904032035 85 132 5.0 15.0 0.00 0.00 0.00 72 1016.9
20260904031548 85 156 6.0 15.0 0.00 0.00 0.00 72 1016.8
20260904031035 85 103 5.0 14.0 0.00 0.00 0.00 71 1016.8
20260904030538 86 198 4.0 16.0 0.00 0.00 0.00 71 1016.6
20260904030045 86 61 6.0 16.0 0.00 0.00 0.00 70 1016.7
20260904025536 86 110 7.0 15.0 0.00 0.00 0.00 69 1016.6
20260904025035 86 112 6.0 15.0 0.00 0.00 0.00 68 1016.5
20260904024555 87 93 6.0 15.0 0.00 0.00 0.00 67 1016.4
20260904024035 87 134 6.0 14.0 0.00 0.00 0.00 66 1016.3
20260904023535 87 83 5.0 14.0 0.00 0.00 0.00 65 1016.3
20260904023055 87 108 6.0 17.0 0.00 0.00 0.00 64 1016.2
20260904022535 87 72 4.0 17.0 0.00 0.00 0.00 63 1016.1
20260904022036 87 360 7.0 17.0 0.00 0.00 0.00 63 1016.1
20260904021554 87 360 4.0 12.0 0.00 0.00 0.00 63 1015.9
20260904021035 87 360 5.0 12.0 0.00 0.00 0.00 63 1015.9
20260904020535 87 167 4.0 10.0 0.00 0.00 0.00 63 1015.8
20260904020045 87 115 2.0 9.0 0.00 0.00 0.00 64 1015.8
20260904015534 87 89 3.0 9.0 0.00 0.00 0.00 64 1015.7
20260904015038 87 71 4.0 9.0 0.00 0.00 0.00 64 1015.6
20260904014640 87 99 3.0 10.0 0.00 0.00 0.00 63 1015.5
20260904014034 87 120 3.0 10.0 0.00 0.00 0.00 63 1015.4
20260904013535 88 79 3.0 11.0 0.00 0.00 0.00 62 1015.4
20260904013057 88 0 4.0 11.0 0.00 0.00 0.00 62 1015.3
20260904012534 88 120 3.0 11.0 0.00 0.00 0.00 61 1015.5
20260904012035 88 164 4.0 11.0 0.00 0.00 0.00 61 1015.4
20260904011555 88 149 4.0 13.0 0.00 0.00 0.00 62 1015.5
20260904011038 88 113 7.0 13.0 0.00 0.00 0.00 61 1015.3
20260904010534 88 74 5.0 12.0 0.00 0.00 0.00 61 1015.3
20260904010051 88 60 5.0 14.0 0.00 0.00 0.00 61 1015.2
20260904005535 88 96 5.0 14.0 0.00 0.00 0.00 61 1015.0
20260904005035 88 132 6.0 14.0 0.00 0.00 0.00 61 1015.0
20260904004555 88 63 7.0 14.0 0.00 0.00 0.00 61 1014.9
20260904004035 88 69 7.0 14.0 0.00 0.00 0.00 62 1015.0
20260904003534 88 68 8.0 16.0 0.00 0.00 0.00 62 1014.9
20260904003059 89 121 7.0 17.0 0.00 0.00 0.00 61 1014.9
20260904002535 90 86 8.0 17.0 0.00 0.00 0.00 59 1014.8
20260904002035 91 60 9.0 17.0 0.00 0.00 0.00 57 1014.8
20260904001551 92 90 8.0 17.0 0.00 0.00 0.00 55 1014.7
20260904001035 94 49 10.0 17.0 0.00 0.00 0.00 52 1014.6
20260904000537 95 82 9.0 16.0 0.00 0.00 0.00 51 1014.6
20260904000135 98 66 8.0 15.0 0.00 0.00 0.00 46 1014.4
20260903235534 100 31 6.0 14.0 0.00 0.00 0.00 41 1014.5
20260903235035 101 61 6.0 14.0 0.00 0.00 0.00 40 1014.2
20260903234547 101 83 4.0 12.0 0.00 0.00 0.00 39 1014.0
20260903234035 101 122 4.0 11.0 0.00 0.00 0.00 39 1013.9
20260903233535 102 360 4.0 11.0 0.00 0.00 0.00 37 1013.8
20260903233055 102 150 1.0 8.0 0.00 0.00 0.00 37 1013.7
20260903232534 102 0 3.0 8.0 0.00 0.00 0.00 37 1013.8
20260903232038 102 360 4.0 10.0 0.00 0.00 0.00 36 1013.7
20260903231601 102 360 4.0 10.0 0.00 0.00 0.00 36 1013.8
20260903231034 102 124 3.0 14.0 0.00 0.00 0.00 36 1013.7
20260903230534 102 66 3.0 14.0 0.00 0.00 0.00 37 1013.7
20260903225536 103 57 3.0 14.0 0.00 0.00 0.00 37 1013.7
20260903225036 103 131 2.0 14.0 0.00 0.00 0.00 37 1013.6
20260903224556 103 153 5.0 10.0 0.00 0.00 0.00 35 1013.5
20260903224035 103 0 1.0 11.0 0.00 0.00 0.00 36 1013.5
20260903223535 103 136 3.0 11.0 0.00 0.00 0.00 37 1013.5
20260903223059 103 360 3.0 11.0 0.00 0.00 0.00 35 1013.6
20260903222537 103 360 4.0 11.0 0.00 0.00 0.00 35 1013.6
20260903222036 103 161 4.0 11.0 0.00 0.00 0.00 36 1013.6
20260903221557 103 103 5.0 11.0 0.00 0.00 0.00 36 1013.8
20260903221035 103 360 5.0 13.0 0.00 0.00 0.00 36 1013.8
20260903220535 103 142 3.0 13.0 0.00 0.00 0.00 36 1013.8
20260903220109 103 178 3.0 10.0 0.00 0.00 0.00 36 1013.7
20260903215536 104 155 4.0 10.0 0.00 0.00 0.00 36 1013.8
20260903215035 105 120 3.0 10.0 0.00 0.00 0.00 35 1013.8
20260903214557 105 117 3.0 10.0 0.00 0.00 0.00 35 1013.8
20260903214036 106 103 5.0 10.0 0.00 0.00 0.00 34 1013.9
20260903213535 106 121 2.0 10.0 0.00 0.00 0.00 36 1014.0
20260903213049 106 149 1.0 11.0 0.00 0.00 0.00 35 1013.8
20260903212536 106 153 5.0 11.0 0.00 0.00 0.00 35 1014.0
20260903212035 106 136 4.0 11.0 0.00 0.00 0.00 34 1014.2
20260903211554 105 53 2.0 10.0 0.00 0.00 0.00 35 1014.3
20260903211038 105 351 2.0 10.0 0.00 0.00 0.00 33 1014.4
20260903210535 105 93 4.0 9.0 0.00 0.00 0.00 35 1014.5
20260903210055 105 95 2.0 9.0 0.00 0.00 0.00 36 1014.5
20260903205536 104 132 3.0 8.0 0.00 0.00 0.00 37 1014.6
20260903205035 103 0 2.0 6.0 0.00 0.00 0.00 37 1014.5
20260903204548 104 113 0.0 7.0 0.00 0.00 0.00 36 1014.7
20260903204034 104 0 0.0 13.0 0.00 0.00 0.00 36 1014.8
20260903203538 105 52 5.0 13.0 0.00 0.00 0.00 35 1014.9
20260903203045 106 153 1.0 10.0 0.00 0.00 0.00 35 1014.9
20260903202535 105 99 1.0 10.0 0.00 0.00 0.00 35 1015.0
20260903202035 105 100 4.0 10.0 0.00 0.00 0.00 35 1015.0
20260903201557 105 79 4.0 10.0 0.00 0.00 0.00 36 1015.1
20260903201034 104 0 3.0 8.0 0.00 0.00 0.00 37 1015.1
20260903200534 104 199 3.0 8.0 0.00 0.00 0.00 37 1015.1
20260903200053 104 184 3.0 9.0 0.00 0.00 0.00 38 1015.1
20260903195534 104 267 2.0 9.0 0.00 0.00 0.00 38 1015.2
20260903195036 104 166 2.0 14.0 0.00 0.00 0.00 38 1015.4
20260903194555 104 160 5.0 14.0 0.00 0.00 0.00 38 1015.5
20260903194035 104 360 3.0 13.0 0.00 0.00 0.00 39 1015.5
20260903193535 104 246 4.0 12.0 0.00 0.00 0.00 39 1015.5
20260903193052 104 360 3.0 12.0 0.00 0.00 0.00 40 1015.6
20260903192536 103 146 3.0 12.0 0.00 0.00 0.00 40 1015.7
20260903192034 102 153 3.0 9.0 0.00 0.00 0.00 41 1015.8
20260903191553 102 146 2.0 9.0 0.00 0.00 0.00 41 1015.8
20260903191035 102 175 1.0 10.0 0.00 0.00 0.00 42 1016.0
20260903190535 102 218 4.0 10.0 0.00 0.00 0.00 42 1016.0
20260903185535 101 9 4.0 10.0 0.00 0.00 0.00 43 1016.2
20260903185034 101 178 2.0 11.0 0.00 0.00 0.00 43 1016.2
20260903184549 101 360 4.0 11.0 0.00 0.00 0.00 44 1016.3
20260903184034 101 180 3.0 9.0 0.00 0.00 0.00 44 1016.4
20260903183534 101 202 1.0 12.0 0.00 0.00 0.00 44 1016.5
20260903183044 101 175 6.0 12.0 0.00 0.00 0.00 43 1016.6
20260903182535 102 0 5.0 12.0 0.00 0.00 0.00 43 1016.6
20260903182036 101 148 6.0 12.0 0.00 0.00 0.00 44 1016.7
20260903181556 101 360 4.0 9.0 0.00 0.00 0.00 45 1016.7
20260903181036 101 69 3.0 11.0 0.00 0.00 0.00 47 1016.8
20260903180535 100 0 2.0 11.0 0.00 0.00 0.00 47 1017.0
20260903180056 99 100 4.0 11.0 0.00 0.00 0.00 49 1016.9
20260903175534 98 360 4.0 15.0 0.00 0.00 0.00 49 1017.2
20260903175036 97 128 7.0 15.0 0.00 0.00 0.00 49 1017.3
20260903174550 97 267 3.0 12.0 0.00 0.00 0.00 50 1017.3
20260903174034 97 230 5.0 15.0 0.00 0.00 0.00 50 1017.5
20260903173534 98 268 4.0 15.0 0.00 0.00 0.00 49 1017.5
20260903173056 97 130 6.0 12.0 0.00 0.00 0.00 51 1017.6
20260903172538 98 158 3.0 10.0 0.00 0.00 0.00 51 1017.8
20260903172035 97 148 4.0 12.0 0.00 0.00 0.00 54 1017.9
20260903171555 96 360 6.0 13.0 0.00 0.00 0.00 53 1018.0
20260903171034 97 197 6.0 13.0 0.00 0.00 0.00 52 1017.9
20260903170534 96 101 6.0 11.0 0.00 0.00 0.00 54 1017.9
20260903170058 95 0 4.0 13.0 0.00 0.00 0.00 54 1018.1
20260903165534 96 196 5.0 13.0 0.00 0.00 0.00 54 1018.0
20260903165035 96 198 6.0 11.0 0.00 0.00 0.00 52 1018.1
20260903164549 96 0 3.0 12.0 0.00 0.00 0.00 55 1018.1
20260903164035 95 130 7.0 13.0 0.00 0.00 0.00 55 1018.2
20260903163534 94 145 4.0 13.0 0.00 0.00 0.00 57 1018.2
20260903163110 94 194 5.0 12.0 0.00 0.00 0.00 58 1018.2
20260903162535 94 190 3.0 12.0 0.00 0.00 0.00 58 1018.3
20260903162034 94 215 4.0 12.0 0.00 0.00 0.00 59 1018.3
20260903161553 93 161 5.0 14.0 0.00 0.00 0.00 60 1018.2
20260903161034 93 157 6.0 14.0 0.00 0.00 0.00 60 1018.3
20260903160538 93 172 4.0 12.0 0.00 0.00 0.00 61 1018.3
20260903160106 92 128 6.0 11.0 0.00 0.00 0.00 62 1018.2
20260903155534 92 52 3.0 10.0 0.00 0.00 0.00 63 1018.1
20260903155035 91 156 4.0 12.0 0.00 0.00 0.00 65 1018.3
20260903154554 91 138 4.0 13.0 0.00 0.00 0.00 64 1018.2
20260903154035 91 164 6.0 13.0 0.00 0.00 0.00 65 1018.1
20260903153537 90 163 4.0 16.0 0.00 0.00 0.00 67 1018.2
20260903153053 90 154 5.0 16.0 0.00 0.00 0.00 66 1018.2
20260903152536 90 163 7.0 14.0 0.00 0.00 0.00 67 1018.3
20260903152034 90 211 6.0 14.0 0.00 0.00 0.00 67 1018.2
20260903151553 89 172 6.0 14.0 0.00 0.00 0.00 69 1018.1
20260903151036 88 186 6.0 11.0 0.00 0.00 0.00 70 1018.2
20260903150535 88 175 7.0 11.0 0.00 0.00 0.00 72 1018.3
20260903150108 87 176 4.0 10.0 0.00 0.00 0.00 73 1018.2
20260903145535 87 152 4.0 12.0 0.00 0.00 0.00 74 1018.3
20260903145035 86 155 4.0 12.0 0.00 0.00 0.00 75 1018.3
20260903144554 86 182 5.0 11.0 0.00 0.00 0.00 75 1018.3
20260903144037 86 126 5.0 12.0 0.00 0.00 0.00 76 1018.2
20260903143535 86 162 5.0 12.0 0.00 0.00 0.00 76 1018.1
20260903143051 86 165 5.0 12.0 0.00 0.00 0.00 76 1018.1
20260903142536 86 160 6.0 12.0 0.00 0.00 0.00 77 1018.1
20260903142035 85 157 6.0 12.0 0.00 0.00 0.00 79 1018.3
20260903141556 85 149 6.0 11.0 0.00 0.00 0.00 80 1018.2
20260903141034 84 173 5.0 11.0 0.00 0.00 0.00 82 1018.3
20260903140535 83 155 4.0 9.0 0.00 0.00 0.00 82 1018.4
20260903140048 83 155 4.0 9.0 0.00 0.00 0.00 83 1018.4
20260903135535 83 178 3.0 9.0 0.00 0.00 0.00 84 1018.3
20260903135035 83 147 2.0 7.0 0.00 0.00 0.00 84 1018.5
20260903134554 82 261 3.0 7.0 0.00 0.00 0.00 84 1018.5
20260903134034 82 145 2.0 10.0 0.00 0.00 0.00 84 1018.3
20260903133534 82 186 3.0 10.0 0.00 0.00 0.00 85 1018.3
20260903133054 82 165 4.0 9.0 0.00 0.00 0.00 84 1018.2
20260903132537 82 187 4.0 9.0 0.00 0.00 0.00 84 1018.2
20260903132034 82 150 3.0 9.0 0.00 0.00 0.00 85 1018.2
20260903131554 82 184 3.0 9.0 0.00 0.00 0.00 85 1018.2
20260903131034 81 186 4.0 9.0 0.00 0.00 0.00 85 1018.2
20260903130535 81 165 2.0 8.0 0.00 0.00 0.00 86 1018.2
20260903130046 81 162 3.0 8.0 0.00 0.00 0.00 86 1018.3
20260903125535 81 154 4.0 11.0 0.00 0.00 0.00 86 1018.3
20260903125037 81 156 3.0 11.0 0.00 0.00 0.00 86 1018.2
20260903124553 81 185 3.0 9.0 0.00 0.00 0.00 86 1018.2
20260903124036 81 144 4.0 9.0 0.00 0.00 0.00 86 1018.3
20260903123534 81 149 4.0 9.0 0.00 0.00 0.00 86 1018.2
20260903123051 81 148 1.0 9.0 0.00 0.00 0.00 86 1018.1
20260903122535 81 144 3.0 9.0 0.00 0.00 0.00 86 1018.1
20260903122036 81 360 2.0 7.0 0.00 0.00 0.00 86 1018.1
20260903121559 81 154 3.0 9.0 0.00 0.00 0.00 86 1018.1
20260903121035 81 142 4.0 9.0 0.00 0.00 0.00 86 1018.1
20260903120537 81 178 3.0 9.0 0.00 0.00 0.00 85 1018.1
20260903120047 81 168 4.0 10.0 0.00 0.00 0.00 85 1018.1
20260903115535 81 182 4.0 10.0 0.00 0.00 0.00 85 1018.1
20260903115035 81 145 3.0 11.0 0.00 0.00 0.00 85 1018.2
20260903114613 81 159 4.0 11.0 0.00 0.00 0.00 85 1018.1
20260903114035 81 136 4.0 8.0 0.00 0.00 0.00 85 1018.0
20260903113539 81 159 3.0 8.0 0.00 0.00 0.00 85 1017.9
20260903113053 81 98 2.0 8.0 0.00 0.00 0.00 85 1017.9
20260903112536 81 169 2.0 9.0 0.00 0.00 0.00 85 1017.7
20260903112036 81 171 4.0 11.0 0.00 0.00 0.00 85 1017.7
20260903111613 81 186 5.0 11.0 0.00 0.00 0.00 85 1017.7
20260903111035 81 174 4.0 11.0 0.00 0.00 0.00 85 1017.6
20260903110535 81 165 3.0 11.0 0.00 0.00 0.00 85 1017.6
20260903110047 81 163 4.0 11.0 0.00 0.00 0.00 85 1017.7
20260903105538 81 165 4.0 10.0 0.00 0.00 0.00 85 1017.6
20260903105035 82 153 4.0 10.0 0.00 0.00 0.00 85 1017.7
20260903104605 81 0 3.0 11.0 0.00 0.00 0.00 85 1017.7
20260903104035 81 161 2.0 12.0 0.00 0.00 0.00 85 1017.6
20260903103534 81 182 4.0 12.0 0.00 0.00 0.00 85 1017.6
20260903103104 81 175 2.0 9.0 0.00 0.00 0.00 85 1017.7
20260903102536 81 186 2.0 9.0 0.00 0.00 0.00 85 1017.6
20260903102035 81 170 4.0 15.0 0.00 0.00 0.00 85 1017.6
20260903101556 81 360 6.0 15.0 0.00 0.00 0.00 85 1017.6
20260903101035 81 171 4.0 10.0 0.00 0.00 0.00 85 1017.7
20260903100535 81 189 4.0 10.0 0.00 0.00 0.00 85 1017.5
20260903100049 81 158 4.0 10.0 0.00 0.00 0.00 85 1017.6
20260903095534 81 185 4.0 10.0 0.00 0.00 0.00 85 1017.6
20260903095036 81 360 6.0 10.0 0.00 0.00 0.00 85 1017.5
20260903094559 81 162 5.0 10.0 0.00 0.00 0.00 85 1017.5
20260903094035 81 155 5.0 11.0 0.00 0.00 0.00 85 1017.4
20260903093535 81 147 6.0 13.0 0.00 0.00 0.00 85 1017.5
20260903093122 81 162 6.0 13.0 0.00 0.00 0.00 85 1017.4
20260903092538 81 155 6.0 11.0 0.00 0.00 0.00 86 1017.5
20260903092035 81 146 5.0 14.0 0.00 0.00 0.00 86 1017.5
20260903091551 81 177 5.0 14.0 0.00 0.00 0.00 86 1017.6
20260903091035 81 159 4.0 9.0 0.00 0.00 0.00 86 1017.5
20260903090535 81 179 3.0 10.0 0.00 0.00 0.00 86 1017.5
20260903090055 81 171 4.0 10.0 0.00 0.00 0.00 86 1017.5
20260903085536 81 165 5.0 10.0 0.00 0.00 0.00 86 1017.6
20260903085034 81 130 4.0 9.0 0.00 0.00 0.00 86 1017.6
20260903084555 81 148 4.0 9.0 0.00 0.00 0.00 86 1017.6
20260903084034 82 153 2.0 10.0 0.00 0.00 0.00 86 1017.6
20260903083535 82 205 4.0 10.0 0.00 0.00 0.00 86 1017.6
20260903083052 82 144 4.0 10.0 0.00 0.00 0.00 86 1017.5
20260903082534 82 164 4.0 10.0 0.00 0.00 0.00 86 1017.6
20260903082035 82 169 4.0 10.0 0.00 0.00 0.00 86 1017.7
20260903081545 81 159 5.0 11.0 0.00 0.00 0.00 86 1017.6
20260903081038 81 134 3.0 11.0 0.00 0.00 0.00 86 1017.6
20260903080535 81 140 5.0 11.0 0.00 0.00 0.00 86 1017.6
20260903080046 81 0 5.0 12.0 0.00 0.00 0.00 86 1017.6
20260903075534 81 166 4.0 12.0 0.00 0.00 0.00 86 1017.6
20260903075038 81 161 4.0 11.0 0.00 0.00 0.00 86 1017.6
20260903074553 81 360 5.0 12.0 0.00 0.00 0.00 86 1017.4
20260903074034 81 167 3.0 12.0 0.00 0.00 0.00 85 1017.4
20260903073535 81 360 4.0 11.0 0.00 0.00 0.00 85 1017.4
20260903073053 81 360 5.0 11.0 0.00 0.00 0.00 85 1017.4
20260903072535 81 157 5.0 13.0 0.00 0.00 0.00 85 1017.5
20260903072034 81 180 5.0 13.0 0.00 0.00 0.00 85 1017.5
20260903071615 82 158 5.0 12.0 0.00 0.00 0.00 85 1017.5
20260903071034 82 205 4.0 12.0 0.00 0.00 0.00 85 1017.5
20260903070536 82 160 5.0 10.0 0.00 0.00 0.00 84 1017.6
20260903070058 82 179 5.0 12.0 0.00 0.00 0.00 84 1017.5
20260903065539 82 149 3.0 12.0 0.00 0.00 0.00 84 1017.7
20260903065034 82 136 3.0 8.0 0.00 0.00 0.00 84 1017.7
20260903064559 82 173 3.0 8.0 0.00 0.00 0.00 84 1017.7